El Maiten Airport


Codes: SAVD/EMX
Name: El Maiten Airport
City: El Maiten
Country: Argentina
Elevation: 2355 ft.

Photos at El Maiten Airport


   Photos courtesy of SpottingLog. You can add your own sightings and photos by signing up for a free trial today.



No photos found.

Weather at El Maiten Airport


Time (UTC)DescriptionTempratureWindCloud coverageVisibilityPressureHumidity
16-Jun-2024 09:00Overcast Clouds1°C4 mph, W100%10000m1021hPa91%
16-Jun-2024 12:00Overcast Clouds1°C4 mph, W100%10000m1021hPa90%
16-Jun-2024 15:00Overcast Clouds3°C4 mph, W100%10000m1020hPa82%
16-Jun-2024 18:00Overcast Clouds5°C4 mph, NW100%10000m1016hPa70%
16-Jun-2024 21:00Overcast Clouds4°C2 mph, NW100%10000m1014hPa84%
17-Jun-2024 00:00Overcast Clouds3°C4 mph, NW100%10000m1012hPa88%
17-Jun-2024 03:00Broken Clouds2°C4 mph, NW67%10000m1011hPa93%
17-Jun-2024 06:00Light Rain2°C4 mph, NW76%7424m1008hPa97%
17-Jun-2024 09:00Snow2°C4 mph, NW100%64m1006hPa99%
17-Jun-2024 12:00Light Rain3°C2 mph, N100%1481m1002hPa98%
17-Jun-2024 15:00Snow3°C7 mph, W97%893m1003hPa99%
17-Jun-2024 18:00Light Rain4°C7 mph, NW85%10000m1002hPa85%
17-Jun-2024 21:00Scattered Clouds2°C9 mph, NW40%10000m1002hPa92%
18-Jun-2024 00:00Broken Clouds2°C7 mph, NW62%10000m1003hPa89%
18-Jun-2024 03:00Broken Clouds1°C7 mph, NW78%10000m1002hPa94%
18-Jun-2024 06:00Overcast Clouds2°C4 mph, NW88%10000m1003hPa94%
18-Jun-2024 09:00Overcast Clouds2°C2 mph, W100%9166m1004hPa94%
18-Jun-2024 12:00Light Snow2°C2 mph, NW100%8210m1005hPa95%
18-Jun-2024 15:00Overcast Clouds3°C2 mph, S100%10000m1007hPa90%
18-Jun-2024 18:00Light Snow3°C2 mph, SE100%2150m1007hPa93%
18-Jun-2024 21:00Light Snow2°C4 mph, E100%2195m1009hPa94%
19-Jun-2024 00:00Light Snow1°C2 mph, E100%1050m1010hPa96%
19-Jun-2024 03:00Light Snow0°C0 mph, N97%2790m1011hPa97%
19-Jun-2024 06:00Light Snow1°C2 mph, NW94%8352m1011hPa96%
19-Jun-2024 09:00Overcast Clouds-0°C4 mph, NW85%10000m1012hPa96%
19-Jun-2024 12:00Overcast Clouds1°C4 mph, NW90%10000m1012hPa87%
19-Jun-2024 15:00Light Snow2°C4 mph, W96%10000m1014hPa78%
19-Jun-2024 18:00Light Snow2°C4 mph, W89%10000m1015hPa70%
19-Jun-2024 21:00Broken Clouds-0°C4 mph, W60%10000m1016hPa84%
20-Jun-2024 00:00Broken Clouds-2°C4 mph, NW54%10000m1018hPa91%
20-Jun-2024 03:00Overcast Clouds-1°C0 mph, NE100%10000m1017hPa88%
20-Jun-2024 06:00Overcast Clouds-0°C2 mph, E100%10000m1015hPa84%
20-Jun-2024 09:00Light Snow-1°C4 mph, SE100%730m1013hPa93%
20-Jun-2024 12:00Snow-0°C4 mph, E100%128m1011hPa97%
20-Jun-2024 15:00Snow1°C4 mph, SE100%142m1009hPa98%
20-Jun-2024 18:00Snow1°C4 mph, S100%184m1006hPa98%
20-Jun-2024 21:00Light Snow1°C2 mph, S100%4439m1006hPa97%
21-Jun-2024 00:00Overcast Clouds1°C2 mph, S100%8963m1007hPa97%
21-Jun-2024 03:00Overcast Clouds1°C2 mph, SE100%10000m1007hPa97%
21-Jun-2024 06:00Overcast Clouds-1°C2 mph, SW89%10000m1008hPa99%